Time,TemperatureF,DewpointF,PressureIn,WindDirection,WindDirectionDegrees,WindSpeedMPH,WindSpeedGustMPH,Humidity,HourlyPrecipIn,Conditions,Clouds,dailyrainin,SoftwareType,DateUTC
2013-11-16 00:03:00,40.9,0.0,29.90,SE,140,0.0,0.0,0,0.00,,---,0.00,VWS V14.00,2013-11-16 06:03:00,
2013-11-16 00:08:00,41.1,0.0,29.89,SE,140,3.0,9.0,0,0.00,,---,0.00,VWS V14.00,2013-11-16 06:08:00,
2013-11-16 00:13:00,41.1,0.0,29.89,SE,146,0.0,9.0,0,0.00,,---,0.00,VWS V14.00,2013-11-16 06:13:00,
2013-11-16 00:18:00,40.9,0.0,29.89,SE,138,0.0,12.0,0,0.00,,---,0.00,VWS V14.00,2013-11-16 06:18:00,
2013-11-16 00:23:00,40.9,0.0,29.88,SE,138,0.0,12.0,0,0.00,,---,0.00,VWS V14.00,2013-11-16 06:23:00,
2013-11-16 00:28:00,40.6,0.0,29.88,SE,139,0.0,12.0,0,0.00,,---,0.00,VWS V14.00,2013-11-16 06:28:00,
2013-11-16 00:33:00,40.6,0.0,29.88,SE,140,0.0,0.0,0,0.00,,---,0.00,VWS V14.00,2013-11-16 06:33:00,
2013-11-16 00:38:00,40.5,0.0,29.87,SSE,147,0.0,10.0,0,0.00,,---,0.00,VWS V14.00,2013-11-16 06:38:00,
2013-11-16 00:43:00,40.5,0.0,29.88,SE,142,0.0,10.0,0,0.00,,---,0.00,VWS V14.00,2013-11-16 06:43:00,
2013-11-16 00:49:00,40.5,0.0,29.88,SE,134,0.0,11.0,0,0.00,,---,0.00,VWS V14.00,2013-11-16 06:49:00,
2013-11-16 00:54:00,40.3,0.0,29.88,SSE,148,2.0,14.0,0,0.00,,---,0.00,VWS V14.00,2013-11-16 06:54:00,
2013-11-16 00:59:00,40.3,0.0,29.88,SE,146,5.0,14.0,0,0.00,,---,0.00,VWS V14.00,2013-11-16 06:59:00,
2013-11-16 01:04:00,40.3,0.0,29.88,SE,140,0.0,0.0,0,0.00,,---,0.00,VWS V14.00,2013-11-16 07:04:00,
2013-11-16 01:09:00,40.2,0.0,29.88,SE,139,0.0,0.0,0,0.00,,---,0.00,VWS V14.00,2013-11-16 07:09:00,
2013-11-16 01:14:00,40.2,0.0,29.88,SE,143,4.0,12.0,0,0.00,,---,0.00,VWS V14.00,2013-11-16 07:14:00,
2013-11-16 01:19:00,40.1,0.0,29.88,SE,140,0.0,12.0,0,0.00,,---,0.00,VWS V14.00,2013-11-16 07:19:00,
2013-11-16 01:24:00,40.1,0.0,29.88,SE,146,0.0,12.0,0,0.00,,---,0.00,VWS V14.00,2013-11-16 07:24:00,
2013-11-16 01:29:00,39.9,0.0,29.88,SE,146,0.0,12.0,0,0.00,,---,0.00,VWS V14.00,2013-11-16 07:29:00,
2013-11-16 01:34:00,39.9,0.0,29.89,SE,144,0.0,9.0,0,0.00,,---,0.00,VWS V14.00,2013-11-16 07:34:00,
2013-11-16 01:39:00,39.9,0.0,29.89,SE,144,0.0,9.0,0,0.00,,---,0.00,VWS V14.00,2013-11-16 07:39:00,
2013-11-16 01:44:00,39.6,0.0,29.88,SE,143,0.0,9.0,0,0.00,,---,0.00,VWS V14.00,2013-11-16 07:44:00,
2013-11-16 01:49:00,39.8,0.0,29.88,SE,139,1.0,11.0,0,0.00,,---,0.00,VWS V14.00,2013-11-16 07:49:00,
2013-11-16 01:54:00,39.8,0.0,29.88,SE,136,3.0,12.0,0,0.00,,---,0.00,VWS V14.00,2013-11-16 07:54:00,
2013-11-16 01:59:00,39.8,0.0,29.88,SE,141,5.0,12.0,0,0.00,,---,0.00,VWS V14.00,2013-11-16 07:59:00,
2013-11-16 02:04:00,39.6,0.0,29.88,SSE,148,0.0,0.0,0,0.00,,---,0.00,VWS V14.00,2013-11-16 08:04:00,
2013-11-16 02:09:00,39.6,0.0,29.89,SE,141,0.0,9.0,0,0.00,,---,0.00,VWS V14.00,2013-11-16 08:09:00,
2013-11-16 02:14:00,39.5,0.0,29.88,SE,132,9.0,11.0,0,0.00,,---,0.00,VWS V14.00,2013-11-16 08:14:00,
2013-11-16 02:20:00,39.5,0.0,29.88,SE,138,0.0,11.0,0,0.00,,---,0.00,VWS V14.00,2013-11-16 08:20:00,
2013-11-16 02:25:00,39.5,0.0,29.87,SE,141,0.0,11.0,0,0.00,,---,0.00,VWS V14.00,2013-11-16 08:25:00,
2013-11-16 02:30:00,39.3,0.0,29.87,SE,142,0.0,11.0,0,0.00,,---,0.00,VWS V14.00,2013-11-16 08:30:00,
2013-11-16 02:35:00,39.2,0.0,29.87,SE,142,0.0,0.0,0,0.00,,---,0.00,VWS V14.00,2013-11-16 08:35:00,
2013-11-16 02:40:00,39.2,0.0,29.87,SE,142,0.0,0.0,0,0.00,,---,0.00,VWS V14.00,2013-11-16 08:40:00,
2013-11-16 02:45:00,39.1,0.0,29.87,SE,136,0.0,6.0,0,0.00,,---,0.00,VWS V14.00,2013-11-16 08:45:00,
2013-11-16 02:50:00,39.1,0.0,29.87,SE,136,0.0,6.0,0,0.00,,---,0.00,VWS V14.00,2013-11-16 08:50:00,
2013-11-16 02:55:00,39.1,0.0,29.86,SE,140,0.0,6.0,0,0.00,,---,0.00,VWS V14.00,2013-11-16 08:55:00,
2013-11-16 03:00:00,39.1,0.0,29.86,SE,141,0.0,6.0,0,0.00,,---,0.00,VWS V14.00,2013-11-16 09:00:00,
2013-11-16 03:05:00,39.1,0.0,29.86,SE,143,0.0,0.0,0,0.00,,---,0.00,VWS V14.00,2013-11-16 09:05:00,
2013-11-16 03:10:00,39.2,0.0,29.86,SE,144,0.0,4.0,0,0.00,,---,0.00,VWS V14.00,2013-11-16 09:10:00,
2013-11-16 03:15:00,39.3,0.0,29.86,SE,136,4.0,11.0,0,0.00,,---,0.00,VWS V14.00,2013-11-16 09:15:00,
2013-11-16 03:20:00,39.5,0.0,29.86,SE,143,0.0,11.0,0,0.00,,---,0.00,VWS V14.00,2013-11-16 09:20:00,
2013-11-16 03:25:00,39.5,0.0,29.86,SE,143,0.0,11.0,0,0.00,,---,0.00,VWS V14.00,2013-11-16 09:25:00,
2013-11-16 03:30:00,39.5,0.0,29.86,SSE,148,0.0,11.0,0,0.00,,---,0.00,VWS V14.00,2013-11-16 09:30:00,
2013-11-16 03:35:00,39.8,0.0,29.85,SE,136,9.0,14.0,0,0.00,,---,0.00,VWS V14.00,2013-11-16 09:35:00,
2013-11-16 03:40:00,40.1,0.0,29.86,SSE,157,11.0,16.0,0,0.00,,---,0.00,VWS V14.00,2013-11-16 09:40:00,
2013-11-16 03:45:00,40.2,0.0,29.86,SSE,149,0.0,16.0,0,0.00,,---,0.00,VWS V14.00,2013-11-16 09:45:00,
2013-11-16 03:51:00,40.3,0.0,29.85,SSE,159,5.0,16.0,0,0.00,,---,0.00,VWS V14.00,2013-11-16 09:51:00,
2013-11-16 03:56:00,40.6,0.0,29.85,SE,135,5.0,16.0,0,0.00,,---,0.00,VWS V14.00,2013-11-16 09:56:00,
2013-11-16 04:01:00,40.8,0.0,29.86,SE,138,6.0,16.0,0,0.00,,---,0.00,VWS V14.00,2013-11-16 10:01:00,
2013-11-16 04:06:00,41.1,0.0,29.86,SE,144,1.0,16.0,0,0.00,,---,0.00,VWS V14.00,2013-11-16 10:06:00,
2013-11-16 04:11:00,41.2,0.0,29.85,SE,127,11.0,16.0,0,0.00,,---,0.00,VWS V14.00,2013-11-16 10:11:00,
2013-11-16 04:16:00,41.5,0.0,29.86,SSE,149,0.0,16.0,0,0.00,,---,0.00,VWS V14.00,2013-11-16 10:16:00,
2013-11-16 04:21:00,41.6,0.0,29.85,SE,146,5.0,16.0,0,0.00,,---,0.00,VWS V14.00,2013-11-16 10:21:00,
2013-11-16 04:26:00,41.8,0.0,29.85,SSE,159,0.0,16.0,0,0.00,,---,0.00,VWS V14.00,2013-11-16 10:26:00,
2013-11-16 04:31:00,41.9,0.0,29.86,SE,142,0.0,16.0,0,0.00,,---,0.00,VWS V14.00,2013-11-16 10:31:00,
2013-11-16 04:36:00,42.2,0.0,29.85,SE,129,0.0,12.0,0,0.00,,---,0.00,VWS V14.00,2013-11-16 10:36:00,
2013-11-16 04:41:00,42.2,0.0,29.85,SE,136,5.0,15.0,0,0.00,,---,0.00,VWS V14.00,2013-11-16 10:41:00,
2013-11-16 04:46:00,42.5,0.0,29.85,SSE,161,0.0,15.0,0,0.00,,---,0.00,VWS V14.00,2013-11-16 10:46:00,
2013-11-16 04:51:00,42.5,0.0,29.84,SSE,148,0.0,15.0,0,0.00,,---,0.00,VWS V14.00,2013-11-16 10:51:00,
2013-11-16 04:56:00,42.8,0.0,29.85,SE,137,0.0,15.0,0,0.00,,---,0.00,VWS V14.00,2013-11-16 10:56:00,
2013-11-16 05:01:00,42.8,0.0,29.84,SE,137,0.0,0.0,0,0.00,,---,0.00,VWS V14.00,2013-11-16 11:01:00,
2013-11-16 05:06:00,42.8,0.0,29.84,SE,140,0.0,8.0,0,0.00,,---,0.00,VWS V14.00,2013-11-16 11:06:00,
2013-11-16 05:11:00,42.8,0.0,29.84,SE,145,0.0,8.0,0,0.00,,---,0.00,VWS V14.00,2013-11-16 11:11:00,
2013-11-16 05:16:00,42.8,0.0,29.83,SE,142,0.0,12.0,0,0.00,,---,0.00,VWS V14.00,2013-11-16 11:16:00,
2013-11-16 05:22:00,42.9,0.0,29.83,SE,140,8.0,12.0,0,0.00,,---,0.00,VWS V14.00,2013-11-16 11:22:00,
2013-11-16 05:27:00,43.1,0.0,29.83,SE,136,0.0,12.0,0,0.00,,---,0.00,VWS V14.00,2013-11-16 11:27:00,
2013-11-16 05:32:00,43.1,0.0,29.83,SE,140,0.0,0.0,0,0.00,,---,0.00,VWS V14.00,2013-11-16 11:32:00,
2013-11-16 05:37:00,43.3,0.0,29.83,SSE,152,0.0,13.0,0,0.00,,---,0.00,VWS V14.00,2013-11-16 11:37:00,
2013-11-16 05:42:00,43.3,0.0,29.82,SE,141,10.0,13.0,0,0.00,,---,0.00,VWS V14.00,2013-11-16 11:42:00,
2013-11-16 05:47:00,43.5,0.0,29.82,SE,138,2.0,14.0,0,0.00,,---,0.00,VWS V14.00,2013-11-16 11:47:00,
2013-11-16 05:52:00,43.5,0.0,29.82,SE,139,7.0,14.0,0,0.00,,---,0.00,VWS V14.00,2013-11-16 11:52:00,
2013-11-16 05:57:00,43.5,0.0,29.82,SE,144,0.0,14.0,0,0.00,,---,0.00,VWS V14.00,2013-11-16 11:57:00,
2013-11-16 06:02:00,43.6,0.0,29.81,SE,143,10.0,12.0,0,0.00,,---,0.00,VWS V14.00,2013-11-16 12:02:00,
2013-11-16 06:07:00,43.8,0.0,29.81,SE,146,10.0,17.0,0,0.00,,---,0.00,VWS V14.00,2013-11-16 12:07:00,
2013-11-16 06:12:00,43.8,0.0,29.81,SE,136,0.0,17.0,0,0.00,,---,0.00,VWS V14.00,2013-11-16 12:12:00,
2013-11-16 06:17:00,43.9,0.0,29.81,SE,141,12.0,17.0,0,0.00,,---,0.00,VWS V14.00,2013-11-16 12:17:00,
2013-11-16 06:22:00,44.1,0.0,29.80,SE,145,9.0,17.0,0,0.00,,---,0.00,VWS V14.00,2013-11-16 12:22:00,
2013-11-16 06:27:00,44.2,0.0,29.80,SE,134,10.0,17.0,0,0.00,,---,0.00,VWS V14.00,2013-11-16 12:27:00,
2013-11-16 06:32:00,44.3,0.0,29.80,SE,146,0.0,14.0,0,0.00,,---,0.00,VWS V14.00,2013-11-16 12:32:00,
2013-11-16 06:37:00,44.5,0.0,29.81,SE,136,0.0,14.0,0,0.00,,---,0.00,VWS V14.00,2013-11-16 12:37:00,
2013-11-16 06:42:00,44.6,0.0,29.81,SE,142,0.0,14.0,0,0.00,,---,0.00,VWS V14.00,2013-11-16 12:42:00,
2013-11-16 06:48:00,44.8,0.0,29.81,SE,144,4.0,14.0,0,0.00,,---,0.00,VWS V14.00,2013-11-16 12:48:00,
2013-11-16 06:53:00,44.9,0.0,29.81,SE,146,9.0,14.0,0,0.00,,---,0.00,VWS V14.00,2013-11-16 12:53:00,
2013-11-16 06:58:00,45.1,0.0,29.81,SSE,160,0.0,16.0,0,0.00,,---,0.00,VWS V14.00,2013-11-16 12:58:00,
2013-11-16 07:03:00,45.2,0.0,29.80,SE,137,10.0,14.0,0,0.00,,---,0.00,VWS V14.00,2013-11-16 13:03:00,
2013-11-16 07:08:00,45.4,0.0,29.80,SSE,160,6.0,21.0,0,0.00,,---,0.00,VWS V14.00,2013-11-16 13:08:00,
2013-11-16 07:13:00,45.5,0.0,29.81,SSE,157,7.0,21.0,0,0.00,,---,0.00,VWS V14.00,2013-11-16 13:13:00,
2013-11-16 07:18:00,45.7,0.0,29.81,SSE,153,5.0,21.0,0,0.00,,---,0.00,VWS V14.00,2013-11-16 13:18:00,
2013-11-16 07:23:00,45.7,0.0,29.81,SE,142,4.0,21.0,0,0.00,,---,0.00,VWS V14.00,2013-11-16 13:23:00,
2013-11-16 07:28:00,45.8,0.0,29.80,SE,129,4.0,21.0,0,0.00,,---,0.00,VWS V14.00,2013-11-16 13:28:00,
2013-11-16 07:33:00,46.0,0.0,29.80,SSE,150,5.0,16.0,0,0.00,,---,0.00,VWS V14.00,2013-11-16 13:33:00,
2013-11-16 07:38:00,46.1,0.0,29.81,SSE,147,6.0,16.0,0,0.00,,---,0.00,VWS V14.00,2013-11-16 13:38:00,
2013-11-16 07:43:00,46.1,0.0,29.80,SE,138,6.0,16.0,0,0.00,,---,0.00,VWS V14.00,2013-11-16 13:43:00,
2013-11-16 07:48:00,46.1,0.0,29.80,SSE,156,7.0,16.0,0,0.00,,---,0.00,VWS V14.00,2013-11-16 13:48:00,
2013-11-16 07:53:00,46.2,0.0,29.80,SE,146,0.0,16.0,0,0.00,,---,0.00,VWS V14.00,2013-11-16 13:53:00,
2013-11-16 07:58:00,46.2,0.0,29.80,SE,138,14.0,17.0,0,0.00,,---,0.00,VWS V14.00,2013-11-16 13:58:00,
2013-11-16 08:03:00,46.1,0.0,29.80,SE,141,2.0,10.0,0,0.00,,---,0.00,VWS V14.00,2013-11-16 14:03:00,
2013-11-16 08:08:00,46.1,0.0,29.80,SE,140,10.0,15.0,0,0.00,,---,0.00,VWS V14.00,2013-11-16 14:08:00,
2013-11-16 08:14:00,46.1,0.0,29.79,SSE,150,7.0,15.0,0,0.00,,---,0.00,VWS V14.00,2013-11-16 14:14:00,
2013-11-16 08:19:00,46.2,0.0,29.80,SE,146,0.0,15.0,0,0.00,,---,0.00,VWS V14.00,2013-11-16 14:19:00,
2013-11-16 08:24:00,46.2,0.0,29.79,SSE,148,5.0,15.0,0,0.00,,---,0.00,VWS V14.00,2013-11-16 14:24:00,
2013-11-16 08:29:00,46.4,0.0,29.78,SE,140,19.0,23.0,0,0.00,,---,0.00,VWS V14.00,2013-11-16 14:29:00,
2013-11-16 08:34:00,46.5,0.0,29.78,SE,131,0.0,17.0,0,0.00,,---,0.00,VWS V14.00,2013-11-16 14:34:00,
2013-11-16 08:39:00,46.5,0.0,29.78,SSE,153,10.0,17.0,0,0.00,,---,0.00,VWS V14.00,2013-11-16 14:39:00,
2013-11-16 08:44:00,46.7,0.0,29.78,SE,140,10.0,18.0,0,0.00,,---,0.00,VWS V14.00,2013-11-16 14:44:00,
2013-11-16 08:49:00,46.8,0.0,29.78,SE,133,0.0,18.0,0,0.00,,---,0.00,VWS V14.00,2013-11-16 14:49:00,
2013-11-16 08:54:00,47.0,0.0,29.77,SE,136,13.0,18.0,0,0.00,,---,0.00,VWS V14.00,2013-11-16 14:54:00,
2013-11-16 09:00:00,47.1,0.0,29.77,SE,138,15.0,18.0,0,0.00,,---,0.00,VWS V14.00,2013-11-16 15:00:00,
2013-11-16 09:05:00,47.3,0.0,29.78,SE,142,7.0,13.0,0,0.00,,---,0.00,VWS V14.00,2013-11-16 15:05:00,
2013-11-16 09:10:00,47.4,0.0,29.78,SE,132,14.0,17.0,0,0.00,,---,0.00,VWS V14.00,2013-11-16 15:10:00,
2013-11-16 09:15:00,47.6,0.0,29.78,SE,146,10.0,18.0,0,0.00,,---,0.00,VWS V14.00,2013-11-16 15:15:00,
2013-11-16 09:20:00,47.6,0.0,29.77,SE,127,1.0,20.0,0,0.00,,---,0.00,VWS V14.00,2013-11-16 15:20:00,
2013-11-16 09:25:00,47.7,0.0,29.77,SE,143,10.0,20.0,0,0.00,,---,0.00,VWS V14.00,2013-11-16 15:25:00,
2013-11-16 09:30:00,47.9,0.0,29.78,SE,136,5.0,20.0,0,0.00,,---,0.00,VWS V14.00,2013-11-16 15:30:00,
2013-11-16 09:35:00,48.0,0.0,29.78,SE,146,4.0,15.0,0,0.00,,---,0.00,VWS V14.00,2013-11-16 15:35:00,
2013-11-16 09:40:00,48.2,0.0,29.77,SE,140,2.0,15.0,0,0.00,,---,0.00,VWS V14.00,2013-11-16 15:40:00,
2013-11-16 09:45:00,48.2,0.0,29.76,SE,138,6.0,22.0,0,0.00,,---,0.00,VWS V14.00,2013-11-16 15:45:00,
2013-11-16 09:50:00,48.5,0.0,29.76,SSE,148,12.0,22.0,0,0.00,,---,0.00,VWS V14.00,2013-11-16 15:50:00,
2013-11-16 09:55:00,48.6,0.0,29.75,SSE,156,12.0,22.0,0,0.00,,---,0.00,VWS V14.00,2013-11-16 15:55:00,
2013-11-16 10:00:00,48.8,0.0,29.74,SE,136,13.0,22.0,0,0.00,,---,0.00,VWS V14.00,2013-11-16 16:00:00,
2013-11-16 10:05:00,49.1,0.0,29.75,SE,130,12.0,26.0,0,0.00,,---,0.00,VWS V14.00,2013-11-16 16:05:00,
2013-11-16 10:10:00,49.4,0.0,29.76,South,171,5.0,26.0,0,0.00,,---,0.00,VWS V14.00,2013-11-16 16:10:00,
2013-11-16 10:15:00,49.4,0.0,29.75,SSE,150,17.0,26.0,0,0.00,,---,0.00,VWS V14.00,2013-11-16 16:15:00,
2013-11-16 10:21:00,49.5,0.0,29.75,SE,134,6.0,26.0,0,0.00,,---,0.00,VWS V14.00,2013-11-16 16:21:00,
2013-11-16 10:26:00,49.6,0.0,29.75,SSE,150,12.0,26.0,0,0.00,,---,0.00,VWS V14.00,2013-11-16 16:26:00,
2013-11-16 10:31:00,49.8,0.0,29.74,SSE,163,9.0,27.0,0,0.00,,---,0.00,VWS V14.00,2013-11-16 16:31:00,
2013-11-16 10:36:00,49.9,0.0,29.74,SSE,165,6.0,23.0,0,0.00,,---,0.00,VWS V14.00,2013-11-16 16:36:00,
2013-11-16 10:41:00,50.1,0.0,29.75,SE,146,13.0,23.0,0,0.00,,---,0.00,VWS V14.00,2013-11-16 16:41:00,
2013-11-16 10:46:00,50.2,0.0,29.74,ESE,116,6.0,23.0,0,0.00,,---,0.00,VWS V14.00,2013-11-16 16:46:00,
2013-11-16 10:51:00,50.4,0.0,29.74,SSE,157,10.0,23.0,0,0.00,,---,0.00,VWS V14.00,2013-11-16 16:51:00,
2013-11-16 11:00:00,50.5,0.0,29.73,SE,135,10.0,26.0,0,0.00,,---,0.00,VWS V14.00,2013-11-16 17:00:00,
2013-11-16 11:47:00,51.1,0.0,29.69,SE,145,4.0,10.0,0,0.00,,---,0.00,VWS V14.00,2013-11-16 17:47:00,
2013-11-16 11:52:00,51.3,0.0,29.69,SE,128,10.0,26.0,0,0.00,,---,0.00,VWS V14.00,2013-11-16 17:52:00,
2013-11-16 11:57:00,51.3,0.0,29.69,SE,132,16.0,27.0,0,0.00,,---,0.00,VWS V14.00,2013-11-16 17:57:00,
2013-11-16 12:02:00,51.3,0.0,29.68,SE,140,12.0,16.0,0,0.00,,---,0.00,VWS V14.00,2013-11-16 18:02:00,
2013-11-16 12:07:00,51.3,0.0,29.67,SSE,161,6.0,23.0,0,0.04,,---,0.04,VWS V14.00,2013-11-16 18:07:00,
2013-11-16 12:12:00,51.6,0.0,29.68,SE,139,12.0,23.0,0,0.04,,---,0.04,VWS V14.00,2013-11-16 18:12:00,
2013-11-16 12:17:00,51.6,0.0,29.68,SE,135,12.0,26.0,0,0.04,,---,0.04,VWS V14.00,2013-11-16 18:17:00,
2013-11-16 12:22:00,51.6,0.0,29.67,SE,124,17.0,26.0,0,0.04,,---,0.04,VWS V14.00,2013-11-16 18:22:00,
2013-11-16 12:27:00,51.7,0.0,29.67,South,184,9.0,26.0,0,0.04,,---,0.04,VWS V14.00,2013-11-16 18:27:00,
2013-11-16 12:32:00,51.9,0.0,29.68,SSE,167,6.0,19.0,0,0.04,,---,0.04,VWS V14.00,2013-11-16 18:32:00,
2013-11-16 12:37:00,52.0,0.0,29.67,SE,131,15.0,20.0,0,0.04,,---,0.04,VWS V14.00,2013-11-16 18:37:00,
2013-11-16 12:42:00,52.0,0.0,29.67,SE,138,8.0,22.0,0,0.04,,---,0.04,VWS V14.00,2013-11-16 18:42:00,
2013-11-16 12:47:00,52.0,0.0,29.66,SE,145,6.0,25.0,0,0.04,,---,0.04,VWS V14.00,2013-11-16 18:47:00,
2013-11-16 12:52:00,52.2,0.0,29.66,SSE,156,11.0,25.0,0,0.04,,---,0.04,VWS V14.00,2013-11-16 18:52:00,
2013-11-16 12:57:00,52.2,0.0,29.66,SE,134,12.0,26.0,0,0.05,,---,0.05,VWS V14.00,2013-11-16 18:57:00,
2013-11-16 13:03:00,52.5,0.0,29.66,SE,130,18.0,23.0,0,0.05,,---,0.05,VWS V14.00,2013-11-16 19:03:00,
2013-11-16 13:08:00,52.6,0.0,29.65,South,170,10.0,23.0,0,0.05,,---,0.05,VWS V14.00,2013-11-16 19:08:00,
2013-11-16 13:13:00,52.6,0.0,29.64,SE,140,17.0,23.0,0,0.05,,---,0.05,VWS V14.00,2013-11-16 19:13:00,
2013-11-16 13:18:00,52.8,0.0,29.64,SE,135,7.0,24.0,0,0.05,,---,0.05,VWS V14.00,2013-11-16 19:18:00,
2013-11-16 13:23:00,52.8,0.0,29.64,SE,134,21.0,25.0,0,0.05,,---,0.05,VWS V14.00,2013-11-16 19:23:00,
2013-11-16 13:28:00,52.9,0.0,29.63,SSE,163,13.0,26.0,0,0.05,,---,0.05,VWS V14.00,2013-11-16 19:28:00,
2013-11-16 13:33:00,53.1,0.0,29.62,SE,144,15.0,16.0,0,0.01,,---,0.05,VWS V14.00,2013-11-16 19:33:00,
2013-11-16 13:38:00,53.6,0.0,29.62,SSE,159,16.0,30.0,0,0.01,,---,0.05,VWS V14.00,2013-11-16 19:38:00,
2013-11-16 13:43:00,54.1,0.0,29.61,SE,136,5.0,30.0,0,0.01,,---,0.05,VWS V14.00,2013-11-16 19:43:00,
2013-11-16 13:48:00,53.8,0.0,29.61,SE,128,18.0,30.0,0,0.01,,---,0.05,VWS V14.00,2013-11-16 19:48:00,
2013-11-16 13:53:00,53.8,0.0,29.61,SE,134,15.0,30.0,0,0.01,,---,0.05,VWS V14.00,2013-11-16 19:53:00,
2013-11-16 13:58:00,53.8,0.0,29.60,SE,146,12.0,30.0,0,0.01,,---,0.05,VWS V14.00,2013-11-16 19:58:00,
2013-11-16 14:03:00,53.9,0.0,29.61,SE,139,12.0,26.0,0,0.00,,---,0.05,VWS V14.00,2013-11-16 20:03:00,
2013-11-16 14:09:00,54.1,0.0,29.60,SE,146,21.0,31.0,0,0.00,,---,0.05,VWS V14.00,2013-11-16 20:09:00,
2013-11-16 14:14:00,54.4,0.0,29.60,SE,144,14.0,31.0,0,0.00,,---,0.05,VWS V14.00,2013-11-16 20:14:00,
2013-11-16 14:19:00,54.4,0.0,29.60,SE,135,19.0,31.0,0,0.00,,---,0.05,VWS V14.00,2013-11-16 20:19:00,
2013-11-16 14:24:00,54.5,0.0,29.60,SSE,148,5.0,31.0,0,0.00,,---,0.05,VWS V14.00,2013-11-16 20:24:00,
2013-11-16 14:29:00,54.5,0.0,29.59,SSE,149,10.0,31.0,0,0.00,,---,0.05,VWS V14.00,2013-11-16 20:29:00,
2013-11-16 14:34:00,54.7,0.0,29.59,SE,146,14.0,22.0,0,0.00,,---,0.05,VWS V14.00,2013-11-16 20:34:00,
2013-11-16 14:39:00,54.8,0.0,29.58,SE,136,10.0,31.0,0,0.00,,---,0.05,VWS V14.00,2013-11-16 20:39:00,
2013-11-16 14:44:00,55.1,0.0,29.58,SE,127,14.0,31.0,0,0.00,,---,0.05,VWS V14.00,2013-11-16 20:44:00,
2013-11-16 14:49:00,55.1,0.0,29.58,SE,144,12.0,31.0,0,0.00,,---,0.05,VWS V14.00,2013-11-16 20:49:00,
2013-11-16 14:54:00,55.3,0.0,29.58,SE,143,7.0,31.0,0,0.00,,---,0.05,VWS V14.00,2013-11-16 20:54:00,
2013-11-16 14:59:00,55.3,0.0,29.58,SSE,163,10.0,31.0,0,0.00,,---,0.05,VWS V14.00,2013-11-16 20:59:00,
2013-11-16 15:04:00,55.4,0.0,29.58,SSE,148,15.0,19.0,0,0.00,,---,0.05,VWS V14.00,2013-11-16 21:04:00,
2013-11-16 15:10:00,55.6,0.0,29.58,SE,136,12.0,20.0,0,0.00,,---,0.05,VWS V14.00,2013-11-16 21:10:00,
2013-11-16 15:15:00,55.4,0.0,29.57,SSE,149,13.0,26.0,0,0.00,,---,0.05,VWS V14.00,2013-11-16 21:15:00,
2013-11-16 15:20:00,55.6,0.0,29.57,SE,140,20.0,26.0,0,0.00,,---,0.05,VWS V14.00,2013-11-16 21:20:00,
2013-11-16 15:25:00,55.6,0.0,29.56,SE,125,20.0,26.0,0,0.00,,---,0.05,VWS V14.00,2013-11-16 21:25:00,
2013-11-16 15:30:00,55.7,0.0,29.56,SE,145,17.0,26.0,0,0.00,,---,0.05,VWS V14.00,2013-11-16 21:30:00,
2013-11-16 15:35:00,55.7,0.0,29.56,SSE,161,2.0,28.0,0,0.00,,---,0.05,VWS V14.00,2013-11-16 21:35:00,
2013-11-16 15:40:00,56.0,0.0,29.55,SE,132,14.0,28.0,0,0.00,,---,0.05,VWS V14.00,2013-11-16 21:40:00,
2013-11-16 15:45:00,56.0,0.0,29.56,SSE,148,12.0,28.0,0,0.00,,---,0.05,VWS V14.00,2013-11-16 21:45:00,
2013-11-16 15:50:00,56.2,0.0,29.56,SE,137,13.0,28.0,0,0.00,,---,0.05,VWS V14.00,2013-11-16 21:50:00,
2013-11-16 15:55:00,56.0,0.0,29.56,SSE,149,0.0,28.0,0,0.00,,---,0.05,VWS V14.00,2013-11-16 21:55:00,
2013-11-16 16:00:00,56.3,0.0,29.56,SE,129,15.0,28.0,0,0.00,,---,0.05,VWS V14.00,2013-11-16 22:00:00,
2013-11-16 16:05:00,56.5,0.0,29.56,SSE,151,11.0,30.0,0,0.00,,---,0.05,VWS V14.00,2013-11-16 22:05:00,
2013-11-16 16:10:00,56.3,0.0,29.55,SE,130,15.0,30.0,0,0.00,,---,0.05,VWS V14.00,2013-11-16 22:10:00,
2013-11-16 16:15:00,56.3,0.0,29.55,SE,135,21.0,33.0,0,0.01,,---,0.06,VWS V14.00,2013-11-16 22:15:00,
2013-11-16 16:21:00,56.3,0.0,29.54,SSE,150,11.0,33.0,0,0.01,,---,0.06,VWS V14.00,2013-11-16 22:21:00,
2013-11-16 16:26:00,56.2,0.0,29.54,SE,128,12.0,33.0,0,0.01,,---,0.06,VWS V14.00,2013-11-16 22:26:00,
2013-11-16 16:31:00,56.3,0.0,29.54,SSE,153,15.0,33.0,0,0.01,,---,0.06,VWS V14.00,2013-11-16 22:31:00,
2013-11-16 16:36:00,56.6,0.0,29.54,SE,126,23.0,23.0,0,0.01,,---,0.06,VWS V14.00,2013-11-16 22:36:00,
2013-11-16 16:41:00,56.7,0.0,29.54,SSE,160,14.0,25.0,0,0.01,,---,0.06,VWS V14.00,2013-11-16 22:41:00,
2013-11-16 16:46:00,56.9,0.0,29.54,SSE,152,9.0,25.0,0,0.01,,---,0.06,VWS V14.00,2013-11-16 22:46:00,
2013-11-16 16:51:00,57.0,0.0,29.53,SE,145,15.0,25.0,0,0.01,,---,0.06,VWS V14.00,2013-11-16 22:51:00,
2013-11-16 16:56:00,57.0,0.0,29.52,SE,138,17.0,25.0,0,0.01,,---,0.06,VWS V14.00,2013-11-16 22:56:00,
2013-11-16 17:01:00,56.7,0.0,29.53,South,175,5.0,11.0,0,0.01,,---,0.06,VWS V14.00,2013-11-16 23:01:00,
2013-11-16 17:06:00,56.9,0.0,29.53,SSE,147,5.0,21.0,0,0.01,,---,0.06,VWS V14.00,2013-11-16 23:06:00,
2013-11-16 17:11:00,56.7,0.0,29.54,SSE,163,6.0,21.0,0,0.01,,---,0.06,VWS V14.00,2013-11-16 23:11:00,
2013-11-16 17:16:00,56.9,0.0,29.55,SSE,165,6.0,21.0,0,0.01,,---,0.06,VWS V14.00,2013-11-16 23:16:00,
2013-11-16 17:21:00,56.6,0.0,29.56,SE,143,0.0,21.0,0,0.01,,---,0.06,VWS V14.00,2013-11-16 23:21:00,
2013-11-16 17:27:00,56.6,0.0,29.56,SSE,158,0.0,21.0,0,0.02,,---,0.07,VWS V14.00,2013-11-16 23:27:00,
2013-11-16 17:32:00,56.5,0.0,29.56,SE,146,12.0,12.0,0,0.02,,---,0.08,VWS V14.00,2013-11-16 23:32:00,
2013-11-16 17:37:00,56.3,0.0,29.56,SSE,155,0.0,23.0,0,0.02,,---,0.08,VWS V14.00,2013-11-16 23:37:00,
2013-11-16 17:42:00,56.3,0.0,29.56,South,191,6.0,23.0,0,0.03,,---,0.09,VWS V14.00,2013-11-16 23:42:00,
2013-11-16 17:47:00,56.5,0.0,29.56,SSE,148,0.0,23.0,0,0.03,,---,0.09,VWS V14.00,2013-11-16 23:47:00,
2013-11-16 17:52:00,56.5,0.0,29.55,SE,141,11.0,23.0,0,0.03,,---,0.09,VWS V14.00,2013-11-16 23:52:00,
2013-11-16 17:57:00,56.6,0.0,29.55,SSE,158,9.0,23.0,0,0.03,,---,0.09,VWS V14.00,2013-11-16 23:57:00,
2013-11-16 18:02:00,56.7,0.0,29.55,SSE,155,14.0,19.0,0,0.03,,---,0.09,VWS V14.00,2013-11-17 00:02:00,
2013-11-16 18:07:00,56.7,0.0,29.54,SSE,148,10.0,20.0,0,0.03,,---,0.09,VWS V14.00,2013-11-17 00:07:00,
2013-11-16 18:12:00,56.7,0.0,29.55,ESE,121,7.0,24.0,0,0.03,,---,0.09,VWS V14.00,2013-11-17 00:12:00,
2013-11-16 18:17:00,56.7,0.0,29.54,SSE,153,10.0,24.0,0,0.03,,---,0.09,VWS V14.00,2013-11-17 00:17:00,
2013-11-16 18:22:00,56.9,0.0,29.54,SE,146,11.0,24.0,0,0.03,,---,0.09,VWS V14.00,2013-11-17 00:22:00,
2013-11-16 18:27:00,57.0,0.0,29.54,SSE,147,17.0,24.0,0,0.03,,---,0.09,VWS V14.00,2013-11-17 00:27:00,
2013-11-16 18:32:00,57.2,0.0,29.54,SSE,167,9.0,17.0,0,0.01,,---,0.09,VWS V14.00,2013-11-17 00:32:00,
2013-11-16 18:37:00,57.2,0.0,29.53,SSE,148,4.0,33.0,0,0.01,,---,0.09,VWS V14.00,2013-11-17 00:37:00,
2013-11-16 18:43:00,57.3,0.0,29.53,SE,144,17.0,33.0,0,0.01,,---,0.09,VWS V14.00,2013-11-17 00:43:00,
2013-11-16 18:48:00,57.3,0.0,29.53,SE,146,11.0,33.0,0,0.01,,---,0.09,VWS V14.00,2013-11-17 00:48:00,
2013-11-16 18:53:00,57.5,0.0,29.53,South,178,10.0,33.0,0,0.01,,---,0.09,VWS V14.00,2013-11-17 00:53:00,
2013-11-16 18:58:00,57.5,0.0,29.53,SSE,158,8.0,33.0,0,0.01,,---,0.09,VWS V14.00,2013-11-17 00:58:00,
2013-11-16 19:03:00,57.5,0.0,29.53,SE,138,14.0,18.0,0,0.00,,---,0.09,VWS V14.00,2013-11-17 01:03:00,
2013-11-16 19:08:00,57.5,0.0,29.53,SW,219,12.0,20.0,0,0.00,,---,0.09,VWS V14.00,2013-11-17 01:08:00,
2013-11-16 19:13:00,57.6,0.0,29.53,SSE,164,7.0,20.0,0,0.00,,---,0.09,VWS V14.00,2013-11-17 01:13:00,
2013-11-16 19:18:00,57.6,0.0,29.53,SE,128,9.0,20.0,0,0.00,,---,0.09,VWS V14.00,2013-11-17 01:18:00,
2013-11-16 19:23:00,57.6,0.0,29.53,South,175,10.0,21.0,0,0.00,,---,0.09,VWS V14.00,2013-11-17 01:23:00,
2013-11-16 19:28:00,57.6,0.0,29.53,SSE,167,14.0,21.0,0,0.00,,---,0.09,VWS V14.00,2013-11-17 01:28:00,
2013-11-16 19:33:00,57.6,0.0,29.53,SSE,148,4.0,16.0,0,0.00,,---,0.09,VWS V14.00,2013-11-17 01:33:00,
2013-11-16 19:38:00,57.6,0.0,29.54,SE,132,10.0,21.0,0,0.00,,---,0.09,VWS V14.00,2013-11-17 01:38:00,
2013-11-16 19:43:00,57.8,0.0,29.55,SW,221,0.0,26.0,0,0.00,,---,0.09,VWS V14.00,2013-11-17 01:43:00,
2013-11-16 19:48:00,57.6,0.0,29.54,SSE,163,3.0,26.0,0,0.00,,---,0.09,VWS V14.00,2013-11-17 01:48:00,
2013-11-16 19:53:00,57.6,0.0,29.54,SE,129,4.0,26.0,0,0.00,,---,0.09,VWS V14.00,2013-11-17 01:53:00,
2013-11-16 19:58:00,57.6,0.0,29.54,SSE,153,9.0,26.0,0,0.00,,---,0.09,VWS V14.00,2013-11-17 01:58:00,
2013-11-16 20:04:00,57.6,0.0,29.54,SSW,205,9.0,19.0,0,0.00,,---,0.09,VWS V14.00,2013-11-17 02:04:00,
2013-11-16 20:09:00,57.6,0.0,29.54,South,184,9.0,19.0,0,0.00,,---,0.09,VWS V14.00,2013-11-17 02:09:00,
2013-11-16 20:14:00,57.8,0.0,29.54,SE,146,11.0,22.0,0,0.00,,---,0.09,VWS V14.00,2013-11-17 02:14:00,
2013-11-16 20:19:00,57.8,0.0,29.54,SE,146,13.0,22.0,0,0.00,,---,0.09,VWS V14.00,2013-11-17 02:19:00,
2013-11-16 20:24:00,58.0,0.0,29.54,SE,142,9.0,22.0,0,0.00,,---,0.09,VWS V14.00,2013-11-17 02:24:00,
2013-11-16 20:29:00,58.0,0.0,29.54,South,177,4.0,22.0,0,0.00,,---,0.09,VWS V14.00,2013-11-17 02:29:00,
2013-11-16 20:34:00,58.0,0.0,29.54,South,185,0.0,19.0,0,0.00,,---,0.09,VWS V14.00,2013-11-17 02:34:00,
2013-11-16 20:39:00,58.0,0.0,29.54,South,182,14.0,19.0,0,0.00,,---,0.09,VWS V14.00,2013-11-17 02:39:00,
2013-11-16 20:44:00,58.0,0.0,29.54,SSE,168,3.0,24.0,0,0.00,,---,0.09,VWS V14.00,2013-11-17 02:44:00,
2013-11-16 20:49:00,58.0,0.0,29.54,SSW,210,5.0,24.0,0,0.00,,---,0.09,VWS V14.00,2013-11-17 02:49:00,
2013-11-16 20:54:00,58.0,0.0,29.54,SSE,155,4.0,24.0,0,0.00,,---,0.09,VWS V14.00,2013-11-17 02:54:00,
2013-11-16 20:59:00,58.0,0.0,29.54,SSE,165,9.0,24.0,0,0.00,,---,0.09,VWS V14.00,2013-11-17 02:59:00,
2013-11-16 21:04:00,58.1,0.0,29.54,South,191,10.0,15.0,0,0.00,,---,0.09,VWS V14.00,2013-11-17 03:04:00,
2013-11-16 21:09:00,58.1,0.0,29.54,South,169,3.0,24.0,0,0.00,,---,0.09,VWS V14.00,2013-11-17 03:09:00,
2013-11-16 21:15:00,58.1,0.0,29.54,South,183,0.0,24.0,0,0.00,,---,0.09,VWS V14.00,2013-11-17 03:15:00,
2013-11-16 21:20:00,58.1,0.0,29.54,South,191,4.0,24.0,0,0.00,,---,0.09,VWS V14.00,2013-11-17 03:20:00,
2013-11-16 21:25:00,58.3,0.0,29.54,SSE,151,5.0,24.0,0,0.00,,---,0.09,VWS V14.00,2013-11-17 03:25:00,
2013-11-16 21:30:00,58.3,0.0,29.54,SSE,157,6.0,24.0,0,0.00,,---,0.09,VWS V14.00,2013-11-17 03:30:00,
2013-11-16 21:35:00,58.4,0.0,29.54,SSE,168,5.0,17.0,0,0.00,,---,0.09,VWS V14.00,2013-11-17 03:35:00,
2013-11-16 21:40:00,58.4,0.0,29.54,South,190,0.0,17.0,0,0.00,,---,0.09,VWS V14.00,2013-11-17 03:40:00,
2013-11-16 21:45:00,58.6,0.0,29.54,South,180,9.0,17.0,0,0.00,,---,0.09,VWS V14.00,2013-11-17 03:45:00,
2013-11-16 21:50:00,58.6,0.0,29.54,SSW,202,6.0,17.0,0,0.00,,---,0.09,VWS V14.00,2013-11-17 03:50:00,
2013-11-16 21:55:00,58.7,0.0,29.54,SSW,194,4.0,17.0,0,0.00,,---,0.09,VWS V14.00,2013-11-17 03:55:00,
2013-11-16 22:00:00,58.7,0.0,29.54,South,178,12.0,17.0,0,0.00,,---,0.09,VWS V14.00,2013-11-17 04:00:00,
2013-11-16 22:05:00,58.7,0.0,29.54,SSE,160,10.0,17.0,0,0.00,,---,0.09,VWS V14.00,2013-11-17 04:05:00,
2013-11-16 22:10:00,58.9,0.0,29.53,SSE,162,6.0,17.0,0,0.00,,---,0.09,VWS V14.00,2013-11-17 04:10:00,
2013-11-16 22:15:00,58.9,0.0,29.53,South,173,3.0,17.0,0,0.00,,---,0.09,VWS V14.00,2013-11-17 04:15:00,
2013-11-16 22:20:00,59.0,0.0,29.54,SSE,161,6.0,18.0,0,0.00,,---,0.09,VWS V14.00,2013-11-17 04:20:00,
2013-11-16 22:26:00,59.2,0.0,29.53,SSE,148,11.0,18.0,0,0.00,,---,0.09,VWS V14.00,2013-11-17 04:26:00,
2013-11-16 22:31:00,59.3,0.0,29.53,SE,139,13.0,19.0,0,0.00,,---,0.09,VWS V14.00,2013-11-17 04:31:00,
2013-11-16 22:36:00,59.3,0.0,29.53,SSE,147,11.0,21.0,0,0.00,,---,0.09,VWS V14.00,2013-11-17 04:36:00,
2013-11-16 22:41:00,59.5,0.0,29.53,SSW,192,10.0,21.0,0,0.00,,---,0.09,VWS V14.00,2013-11-17 04:41:00,
2013-11-16 22:46:00,59.5,0.0,29.53,SSW,194,8.0,21.0,0,0.00,,---,0.09,VWS V14.00,2013-11-17 04:46:00,
2013-11-16 22:51:00,59.6,0.0,29.53,SSE,155,5.0,21.0,0,0.00,,---,0.09,VWS V14.00,2013-11-17 04:51:00,
2013-11-16 22:56:00,59.6,0.0,29.53,SSE,167,11.0,26.0,0,0.00,,---,0.09,VWS V14.00,2013-11-17 04:56:00,
2013-11-16 23:01:00,59.6,0.0,29.53,South,174,10.0,26.0,0,0.00,,---,0.09,VWS V14.00,2013-11-17 05:01:00,
2013-11-16 23:02:00,59.6,0.0,29.53,South,184,10.0,15.0,0,0.00,,---,0.09,VWS V14.00,2013-11-17 05:02:00,
2013-11-16 23:04:00,59.6,0.0,29.53,South,169,4.0,19.0,0,0.00,,---,0.09,VWS V14.00,2013-11-17 05:04:00,
2013-11-16 23:09:00,59.5,0.0,29.53,SSW,211,8.0,19.0,0,0.00,,---,0.09,VWS V14.00,2013-11-17 05:09:00,
2013-11-16 23:14:00,59.5,0.0,29.53,SSE,161,7.0,19.0,0,0.00,,---,0.09,VWS V14.00,2013-11-17 05:14:00,
2013-11-16 23:19:00,59.5,0.0,29.53,SSE,163,9.0,19.0,0,0.00,,---,0.09,VWS V14.00,2013-11-17 05:19:00,
2013-11-16 23:24:00,59.5,0.0,29.52,South,173,7.0,22.0,0,0.00,,---,0.09,VWS V14.00,2013-11-17 05:24:00,
2013-11-16 23:29:00,59.6,0.0,29.53,SSE,159,0.0,25.0,0,0.00,,---,0.09,VWS V14.00,2013-11-17 05:29:00,
2013-11-16 23:34:00,59.5,0.0,29.53,SSE,158,5.0,21.0,0,0.00,,---,0.09,VWS V14.00,2013-11-17 05:34:00,
2013-11-16 23:39:00,59.5,0.0,29.53,SSE,159,6.0,21.0,0,0.00,,---,0.09,VWS V14.00,2013-11-17 05:39:00,
2013-11-16 23:45:00,59.3,0.0,29.53,South,184,0.0,21.0,0,0.00,,---,0.09,VWS V14.00,2013-11-17 05:45:00,
2013-11-16 23:50:00,59.3,0.0,29.53,South,184,0.0,21.0,0,0.00,,---,0.09,VWS V14.00,2013-11-17 05:50:00,
2013-11-16 23:55:00,59.3,0.0,29.53,South,190,6.0,21.0,0,0.00,,---,0.09,VWS V14.00,2013-11-17 05:55:00,